TimeCST,TemperatureF,Dew PointF,Humidity,Sea Level PressureIn,VisibilityMPH,Wind Direction,Wind SpeedMPH,Gust SpeedMPH,PrecipitationIn,Events,Conditions,WindDirDegrees,DateUTC
12:35 AM,28.4,21.2,74,29.94,5.0,ESE,12.7,-,N/A,,Haze,120,2013-03-05 06:35:00
12:55 AM,28.4,21.2,74,29.94,5.0,ESE,13.8,-,N/A,,Haze,120,2013-03-05 06:55:00
1:15 AM,28.4,21.2,74,29.94,5.0,ESE,13.8,-,N/A,,Haze,120,2013-03-05 07:15:00
1:35 AM,28.4,21.2,74,29.94,5.0,ESE,10.4,-,N/A,,Haze,120,2013-03-05 07:35:00
1:55 AM,28.4,21.2,74,29.94,4.0,East,10.4,-,N/A,Snow,Light Snow,100,2013-03-05 07:55:00
2:15 AM,28.4,21.2,74,29.94,1.8,East,10.4,-,N/A,Snow,Light Snow,100,2013-03-05 08:15:00
2:35 AM,28.4,21.2,74,29.94,2.0,East,9.2,-,N/A,Snow,Light Snow,100,2013-03-05 08:35:00
2:55 AM,28.4,21.2,74,29.94,2.0,East,9.2,-,N/A,Snow,Light Snow,100,2013-03-05 08:55:00
3:15 AM,28.4,21.2,74,29.93,1.8,East,9.2,-,N/A,Snow,Light Snow,100,2013-03-05 09:15:00
3:36 AM,28.4,19.4,69,29.93,1.2,East,8.1,-,N/A,Snow,Light Snow,100,2013-03-05 09:36:00
3:55 AM,28.4,21.2,74,29.93,1.8,East,6.9,-,N/A,Snow,Light Snow,100,2013-03-05 09:55:00
4:16 AM,28.4,21.2,74,29.93,2.0,East,8.1,-,N/A,Snow,Light Snow,100,2013-03-05 10:16:00
5:15 AM,28.4,21.2,74,29.96,1.8,ENE,4.6,-,N/A,Snow,Light Snow,60,2013-03-05 11:15:00
5:35 AM,28.4,21.2,74,29.97,2.0,NE,3.5,-,N/A,Snow,Light Snow,50,2013-03-05 11:35:00
5:55 AM,28.4,21.2,74,29.97,2.5,NE,5.8,-,0.01,,Overcast,40,2013-03-05 11:55:00
6:35 AM,28.4,21.2,74,29.98,3.0,NE,8.1,-,N/A,Snow,Light Snow,40,2013-03-05 12:35:00
6:55 AM,28.4,21.2,74,29.99,1.8,NNE,9.2,-,N/A,Snow,Light Snow,30,2013-03-05 12:55:00
7:15 AM,28.4,21.2,74,30.00,1.5,NNE,8.1,-,N/A,Snow,Light Snow,30,2013-03-05 13:15:00
7:35 AM,28.4,19.4,69,30.01,1.2,NNE,10.4,-,N/A,Snow,Light Snow,20,2013-03-05 13:35:00
7:55 AM,28.4,19.4,69,30.01,1.2,NNE,9.2,-,N/A,Snow,Light Snow,20,2013-03-05 13:55:00
8:15 AM,28.4,19.4,69,30.02,2.0,North,9.2,-,N/A,Snow,Light Snow,10,2013-03-05 14:15:00
8:35 AM,28.4,19.4,69,30.03,2.0,NNE,10.4,-,N/A,Snow,Light Snow,20,2013-03-05 14:35:00
8:55 AM,28.4,19.4,69,30.04,1.8,NNE,9.2,-,N/A,Snow,Light Snow,20,2013-03-05 14:55:00
9:15 AM,28.4,19.4,69,30.05,1.8,NNE,9.2,-,N/A,Snow,Light Snow,20,2013-03-05 15:15:00
9:35 AM,28.4,19.4,69,30.06,1.5,North,9.2,-,N/A,Snow,Light Snow,10,2013-03-05 15:35:00
9:55 AM,28.4,19.4,69,30.07,1.5,North,10.4,-,N/A,Snow,Light Snow,360,2013-03-05 15:55:00
10:15 AM,28.4,19.4,69,30.08,2.5,North,10.4,-,N/A,,Overcast,360,2013-03-05 16:15:00
10:35 AM,28.4,19.4,69,30.09,1.5,North,11.5,-,N/A,Snow,Light Snow,10,2013-03-05 16:35:00
10:55 AM,30.2,19.4,64,30.09,1.2,North,12.7,-,N/A,Snow,Light Snow,10,2013-03-05 16:55:00
11:15 AM,30.2,19.4,64,30.10,1.8,North,10.4,-,N/A,Snow,Light Snow,360,2013-03-05 17:15:00
11:36 AM,30.2,21.2,69,30.11,2.0,North,15.0,-,N/A,Snow,Light Snow,350,2013-03-05 17:36:00
11:55 AM,30.2,19.4,64,30.11,3.0,North,16.1,-,N/A,Snow,Light Snow,360,2013-03-05 17:55:00
12:15 PM,30.2,19.4,64,30.12,4.0,North,15.0,-,N/A,Snow,Light Snow,350,2013-03-05 18:15:00
12:35 PM,32.0,19.4,60,30.12,7.0,North,15.0,-,N/A,,Scattered Clouds,350,2013-03-05 18:35:00
12:55 PM,32.0,19.4,60,30.12,7.0,North,13.8,-,N/A,,Mostly Cloudy,350,2013-03-05 18:55:00
1:15 PM,32.0,19.4,60,30.13,10.0,NNW,15.0,-,N/A,,Mostly Cloudy,340,2013-03-05 19:15:00
1:35 PM,33.8,19.4,56,30.14,10.0,North,15.0,-,N/A,,Overcast,350,2013-03-05 19:35:00
1:56 PM,32.0,17.6,55,30.14,10.0,North,16.1,20.7,N/A,,Overcast,350,2013-03-05 19:56:00
2:15 PM,33.8,17.6,52,30.15,10.0,North,17.3,20.7,N/A,,Overcast,350,2013-03-05 20:15:00
2:35 PM,33.8,17.6,52,30.16,10.0,North,15.0,-,N/A,Snow,Light Snow,350,2013-03-05 20:35:00
2:56 PM,33.8,17.6,52,30.16,7.0,NNW,11.5,-,N/A,Snow,Light Snow,340,2013-03-05 20:56:00
3:15 PM,33.8,17.6,52,30.17,7.0,NNW,13.8,-,N/A,Snow,Light Snow,330,2013-03-05 21:15:00
3:35 PM,33.8,19.4,56,30.18,3.0,NNW,12.7,-,N/A,Snow,Light Snow,330,2013-03-05 21:35:00
3:55 PM,32.0,23.0,69,30.19,1.2,NW,17.3,-,N/A,Snow,Light Snow,320,2013-03-05 21:55:00
4:16 PM,32.0,21.2,64,30.19,1.8,NW,16.1,-,N/A,Snow,Light Snow,320,2013-03-05 22:16:00
4:35 PM,32.0,21.2,64,30.20,1.8,NW,18.4,-,N/A,Snow,Light Snow,320,2013-03-05 22:35:00
4:55 PM,30.2,21.2,69,30.21,5.0,NW,18.4,-,N/A,Snow,Light Snow,320,2013-03-05 22:55:00
5:15 PM,30.2,21.2,69,30.22,7.0,NW,16.1,-,N/A,Snow,Light Snow,320,2013-03-05 23:15:00
5:35 PM,30.2,19.4,64,30.22,5.0,NNW,17.3,-,N/A,Snow,Light Snow,330,2013-03-05 23:35:00
5:55 PM,30.2,19.4,64,30.23,-9999.0,NNW,13.8,-,N/A,,Mostly Cloudy,330,2013-03-05 23:55:00
6:15 PM,30.2,19.4,64,30.25,-9999.0,NNW,10.4,-,N/A,,Mostly Cloudy,330,2013-03-06 00:15:00
6:35 PM,30.2,19.4,64,30.26,-9999.0,NNW,15.0,-,N/A,,Overcast,330,2013-03-06 00:35:00
6:55 PM,26.6,17.6,69,30.26,-9999.0,NW,11.5,-,N/A,,Scattered Clouds,320,2013-03-06 00:55:00
7:15 PM,24.8,15.8,69,30.27,-9999.0,NW,10.4,-,N/A,,Clear,310,2013-03-06 01:15:00
7:35 PM,24.8,15.8,69,30.27,-9999.0,NW,9.2,-,N/A,,Mostly Cloudy,310,2013-03-06 01:35:00
7:55 PM,26.6,17.6,69,30.28,-9999.0,NW,12.7,-,N/A,,Overcast,310,2013-03-06 01:55:00
8:15 PM,26.6,15.8,64,30.28,-9999.0,NW,12.7,-,N/A,,Overcast,310,2013-03-06 02:15:00
8:35 PM,26.6,15.8,64,30.29,-9999.0,WNW,11.5,-,N/A,,Overcast,300,2013-03-06 02:35:00
8:55 PM,24.8,15.8,69,30.29,-9999.0,NW,12.7,-,N/A,,Overcast,310,2013-03-06 02:55:00
9:15 PM,24.8,14.0,64,30.30,-9999.0,NW,12.7,-,N/A,,Overcast,310,2013-03-06 03:15:00
9:35 PM,21.2,12.2,68,30.30,-9999.0,NW,8.1,-,N/A,,Scattered Clouds,310,2013-03-06 03:35:00
9:55 PM,19.4,10.4,68,30.31,-9999.0,NW,11.5,-,N/A,,Scattered Clouds,310,2013-03-06 03:55:00
10:15 PM,19.4,10.4,68,30.32,-9999.0,NW,10.4,-,N/A,,Mostly Cloudy,310,2013-03-06 04:15:00
10:35 PM,19.4,10.4,68,30.32,-9999.0,NW,9.2,-,N/A,,Overcast,310,2013-03-06 04:35:00
10:55 PM,21.2,12.2,68,30.32,-9999.0,NW,8.1,-,N/A,,Overcast,310,2013-03-06 04:55:00
11:15 PM,21.2,12.2,68,30.32,-9999.0,NW,11.5,-,N/A,,Overcast,310,2013-03-06 05:15:00
11:35 PM,21.2,12.2,68,30.33,-9999.0,WNW,6.9,-,N/A,,Overcast,300,2013-03-06 05:35:00
11:55 PM,21.2,12.2,68,30.33,-9999.0,NW,9.2,-,N/A,,Overcast,310,2013-03-06 05:55:00